{"data":{"norad_id":60249,"intl_designator":"2024-130A","name":"GAOFEN-11 05","alt_names":[],"object_type":"PAYLOAD","status":"ACTIVE","operator":null,"country":"PRC","launch_date":"2024-07-19","launch_site_code":"TAISC","launch_vehicle":null,"mission":null,"orbit_class":"UNKNOWN","rcs_meters":null,"size_class":null,"mass_kg":null,"dimensions":null,"purposes":[],"wikipedia_slug":null,"has_3d_model":false,"image_url":null,"decayed_at":null,"tle_current":{"epoch":"2026-09-22T23:27:33.168672Z","epoch_age_seconds":67051,"freshness":"FRESH","line1":"1 60249U 24130A   26265.97746723  .00003643  00000+0  15535-3 0  9994","line2":"2 60249  97.3932 342.9034 0002513  65.4356 294.7143 15.23559037100350","mean_motion":15.23559037,"eccentricity":0.0002513,"inclination_deg":97.3932,"raan_deg":342.9034,"arg_perigee_deg":65.4356,"mean_anomaly_deg":294.7143,"bstar":0.00015535,"rev_number":10035,"period_min":94.515536649992,"perigee_km":493.38852995633,"apogee_km":496.84302680275,"semimajor_km":6873.2527783795,"source":"CELESTRAK","updated_at":"2026-09-23T09:00:20.491366Z"}}}